Location: Burgwalden
(48.2830°N, 10.7576°E)
Time: 01:58:17
(UTC+00:00)

SL-19 R/B - Pass Details

Date: 26 September 2023
Orbit: 796 x 1008 km, 99.6° (Epoch: 04 December)

Event Time Altitude Azimuth Distance (km) Brightness Sun altitude
Rises 04:10:37 0° 15° (NNE) 3,560 7.8 -10.4°
Reaches altitude 10° 04:12:59 10° 15° (NNE) 2,643 7.1 -10.0°
Maximum altitude 04:18:57 85° 288° (WNW) 974 4.5 -9.1°
Drops below altitude 10° 04:25:09 10° 201° (SSW) 2,746 6.6 -8.0°
Sets 04:27:39 0° 200° (SSW) 3,707 7.3 -7.6°
